Weather in Nova Bystrice

Czech Republic     49°01′07″N   15°06′39″E
В апреле 2022 года жителям России запретили посещать сайт meteo.paraplan.net по решению Генеральной прокуратуры. Аудитория сайта уменьшилась в 10 раз. Владельцы сайта не видят смысла в поддержке погодного сервера в таких условиях. Сайт будет закрыт в октябре.
temp.,
°C
wind,
m/s
gust,
m/s
humid.,
%
clouds,
%
prec.,
mm/h
press.,
hPa
HPBL,
m
30 september, fri
fri3023:00+9ene2678100 0.1 1006155
02:00+7ne1292100 2.1 100898
05:00+7nnw2495100 1.3 1008175
08:00+7nw1492100 1.3 1010195
11:00+8wnw1193100 0.3 101298
14:00+8sse0192100 0.3 101382
17:00+10s1182100 0.0 1013310
20:00+7e1193100 0.0 101512
1 october, sat
sat123:00+6ese119481 0.0 101510
02:00+6se11959 0.0 101515
05:00+6sse11965 0.0 101511
08:00+7s239112 0.0 101666
11:00+13wsw366354 0.0 1014614
14:00+15wsw4954100 0.0 10131233
17:00+12w51364100 0.1 10141356
20:00+9wsw41293100 1.4 1015691
2 october, sun
sun223:00+9wsw5129368 0.6 1016915
02:00+10wsw5139199 0.6 10161032
05:00+10w41193100 0.3 1018951
08:00+10w4119197 0.9 1020908
11:00+11wnw51185100 0.4 10211295
14:00+12wnw5117454 0.6 10211332
17:00+12wnw51178100 0.1 10211301
20:00+10wnw41284100 0.2 1022674
3 october, mon
mon323:00+8w28955 0.0 1023198
02:00+7w2697100 0.1 1023147
05:00+7w1197100 0.1 102220
08:00+8wnw1494100 0.1 1022132
11:00+12nw3581100 0.0 1022680
14:00+15wnw465553 0.1 10211391
17:00+14wnw376262 0.0 10211287
20:00+10w288414 0.0 1022228
4 october, tue
tue423:00+9nw289141 0.0 1022250
02:00+7w119464 0.0 102215
05:00+8wnw13946 0.0 1022112
08:00+8wnw119439 0.0 102220
11:00+14wnw256680 0.0 1021649
14:00+16wnw345580 0.0 10201168
17:00+15nw2363100 0.0 1019181
20:00+10ese008052 0.0 102110